User: anonymous   Login
Location: Mt. Chestnut Observatory
(40.9038°N, 79.9956°W)
Time: 04:40:28
(UTC-04:00)
Language:

Cosmos 2034 Rocket - Orbit

View from above orbital plane
View from above orbital plane
View from above satellite
View from above satellite

Ground track
Ground track

The orbit data is extracted from the following two-line orbital elements,

1 20150U 89059B   16273.55032877 +.00000130 +00000-0 +11901-3 0  9994
2 20150 082.9367 287.4402 0027590 291.2710 185.7111 13.75621063364345
Epoch (UTC): 29 September 2016 13:12:28
Eccentricity: 0.0027590
inclination: 82.9367°
perigee height: 959 km
apogee height: 1000 km
right ascension of ascending node: 287.4402°
argument of perigee: 291.2710°
revolutions per day: 13.75621063
mean anomaly at epoch: 185.7111°
orbit number at epoch: 36434

The dashed part of the orbit path shows where the satellite is in the earth's shadow,  

DLR